Gary, IN

6:30 AM CDT on October 20, 2017 (GMT -0500)
Gary / Chicago

Weather History for KGYY - October, 2013

Change the Weather History Date:

Thursday, October 24, 2013

  Actual Average Record
Temperature  
Mean Temperature 40 °F -  
Max Temperature 46 °F 60 °F 85 °F (1963)
Min Temperature 37 °F 43 °F 29 °F (1962)
Degree Days  
Heating Degree Days 24    
Moisture  
Dew Point 26 °F    
Average Humidity 58    
Maximum Humidity 75    
Minimum Humidity 37    
Precipitation  
Precipitation 0.00 in - - ()
Sea Level Pressure  
Sea Level Pressure 30.14 in    
Wind  
Wind Speed 9 mph (West)    
Max Wind Speed 17 mph    
Max Gust Speed 23 mph    
Visibility 13 miles    
Events      
Averages and records for this station are not official NWS values.
T = Trace of Precipitation, MM = Missing Value Source: NWS Daily Summary

Daily Weather History Graph

Daily Weather History Graph

Search for Another Location

Airport or City:

Trip Planner

Search our weather history database for the weather conditions in past years. The results will help you decide how hot, cold, wet, or windy it might be!

Date:

Astronomy

Oct. 24, 2013 Rise Set
Actual Time 7:12 AM CDT 5:54 PM CDT
Civil Twilight 6:43 AM CDT 6:22 PM CDT
Nautical Twilight 6:11 AM CDT 6:55 PM CDT
Astronomical Twilight 5:39 AM CDT 7:27 PM CDT
Moon 10:17 PM CDT (10/24) 12:14 PM CDT (10/24)
Length of Visible Light 11h 39m
Length of Day
10h 42m
Waning Gibbous, 71% of the Moon is Illuminated
Oct 24
Waning Gibbous
Oct 26
Last Quarter
Nov 3
New
Nov 9
First Quarter
Nov 17
Full

Hourly Weather History & Observations

Time (CDT) Temp. Windchill Dew Point Humidity Pressure Visibility Wind Dir Wind Speed Gust Speed Precip Events Conditions
12:15 AM 40.3 °F 33.9 °F 27.3 °F 60% 30.02 in 10.0 mi West 10.4 mph - N/A   Overcast
12:35 AM 40.1 °F 34.7 °F 27.5 °F 61% 30.02 in 10.0 mi West 8.1 mph - N/A   Overcast
12:55 AM 40.1 °F 34.1 °F 27.1 °F 60% 30.02 in 10.0 mi West 9.2 mph - N/A   Overcast
1:15 AM 39.6 °F 34.7 °F 27.0 °F 61% 30.02 in 10.0 mi West 6.9 mph - N/A   Overcast
1:35 AM 39.4 °F 34.5 °F 27.3 °F 62% 30.02 in 10.0 mi West 6.9 mph - N/A   Overcast
1:55 AM 39.7 °F 34.3 °F 27.3 °F 61% 30.03 in 10.0 mi West 8.1 mph - N/A   Overcast
2:15 AM 39.6 °F 34.7 °F 27.1 °F 61% 30.03 in 10.0 mi West 6.9 mph - N/A   Overcast
2:35 AM 39.4 °F 36.1 °F 27.9 °F 63% 30.03 in 10.0 mi WSW 4.6 mph - N/A   Overcast
2:55 AM 39.2 °F 35.0 °F 28.2 °F 65% 30.03 in 10.0 mi WSW 5.8 mph - N/A   Overcast
3:15 AM 38.8 °F 33.8 °F 28.4 °F 66% 30.03 in 10.0 mi West 6.9 mph - N/A   Overcast
3:35 AM 39.0 °F 33.4 °F 28.4 °F 66% 30.03 in 10.0 mi West 8.1 mph - N/A   Overcast
3:55 AM 38.8 °F 33.8 °F 28.9 °F 68% 30.03 in 10.0 mi West 6.9 mph - N/A   Overcast
4:15 AM 38.7 °F 32.9 °F 29.3 °F 69% 30.03 in 10.0 mi West 8.1 mph - N/A   Overcast
4:35 AM 38.3 °F 33.9 °F 29.7 °F 71% 30.04 in 10.0 mi West 5.8 mph - N/A   Overcast
4:45 AM 37.4 °F 30.8 °F 30.2 °F 75% 30.04 in 15.0 mi West 9.2 mph - N/A   Overcast
5:45 AM 37.4 °F 30.8 °F 28.4 °F 70% 30.05 in 15.0 mi West 9.2 mph - N/A   Mostly Cloudy
6:45 AM 39.2 °F 33.0 °F 28.4 °F 65% 30.06 in 15.0 mi West 9.2 mph - N/A   Overcast
7:45 AM 37.4 °F 30.8 °F 28.4 °F 70% 30.08 in 15.0 mi West 9.2 mph - N/A   Overcast
8:45 AM 39.2 °F 31.2 °F 26.6 °F 61% 30.11 in 15.0 mi West 13.8 mph - N/A   Overcast
10:45 AM 42.8 °F 36.6 °F 23.0 °F 46% 30.14 in 20.0 mi WNW 11.5 mph - N/A   Scattered Clouds
11:45 AM 44.6 °F 38.8 °F 21.2 °F 39% 30.15 in 20.0 mi West 11.5 mph 23.0 mph N/A   Mostly Cloudy
1:45 PM 42.8 °F 36.6 °F 19.4 °F 39% 30.16 in 15.0 mi West 11.5 mph 23.0 mph N/A   Mostly Cloudy
3:45 PM 44.6 °F 40.2 °F 19.4 °F 37% 30.19 in 20.0 mi WNW 8.1 mph 23.0 mph N/A   Mostly Cloudy
4:47 PM 42.8 °F 34.8 °F 21.2 °F 42% 30.20 in 20.0 mi WNW 17.3 mph - N/A   Mostly Cloudy
5:45 PM 41.0 °F 33.5 °F 23.0 °F 49% 30.23 in 20.0 mi WNW 13.8 mph - N/A   Overcast
7:45 PM 41.0 °F 33.5 °F 23.0 °F 49% 30.26 in 20.0 mi West 13.8 mph - N/A   Overcast
8:45 PM 41.0 °F 34.7 °F 23.0 °F 49% 30.27 in 20.0 mi West 10.4 mph - N/A   Overcast
9:15 PM 41.0 °F 34.7 °F 23.7 °F 50% 30.28 in 10.0 mi West 10.4 mph - N/A   Overcast
9:35 PM 41.0 °F 35.8 °F 23.9 °F 51% 30.28 in 10.0 mi West 8.1 mph - N/A   Overcast
9:45 PM 41.0 °F 34.3 °F 24.8 °F 53% 30.28 in 20.0 mi West 11.5 mph - N/A   Overcast
9:55 PM 40.3 °F 33.9 °F 24.1 °F 52% 30.29 in 10.0 mi West 10.4 mph - N/A   Overcast
10:15 PM 40.3 °F 34.9 °F 24.8 °F 54% 30.29 in 10.0 mi West 8.1 mph - N/A   Overcast
10:35 PM 39.4 °F 32.7 °F 24.6 °F 56% 30.30 in 10.0 mi West 10.4 mph - N/A   Mostly Cloudy
10:55 PM 38.8 °F 32.1 °F 24.6 °F 57% 30.30 in 10.0 mi West 10.4 mph - N/A   Scattered Clouds
11:15 PM 38.3 °F 32.5 °F 25.2 °F 59% 30.30 in 10.0 mi WSW 8.1 mph - N/A   Scattered Clouds
11:35 PM 38.3 °F 33.2 °F 25.3 °F 60% 30.29 in 10.0 mi West 6.9 mph - N/A   Clear
11:55 PM 37.2 °F 31.2 °F 25.3 °F 62% 30.30 in 10.0 mi West 8.1 mph - N/A   Clear